Wilmington, DE

8:55 PM EST on November 11, 2019 (GMT -0500)
New Castle County

Weather History for KILG - August, 2019

Change the Weather History Date:

Thursday, August 29, 2019

  Actual Average Record
Temperature  
Mean Temperature 73 °F 73 °F  
Max Temperature 83 °F 83 °F 98 °F (1953)
Min Temperature 62 °F 64 °F 43 °F (1982)
Degree Days  
Heating Degree Days 0 0  
Month to date heating degree days 0 0  
Since 1 June heating degree days 5 15  
Since 1 July heating degree days 0 0  
Cooling Degree Days 8 8  
Month to date cooling degree days 347 299  
Year to date cooling degree days 1209 976  
Since 1 June cooling degree days 1077 897  
Growing Degree Days 23 (Base 50)    
Moisture  
Dew Point 59 °F    
Average Humidity 69    
Maximum Humidity 100    
Minimum Humidity 37    
Precipitation  
Precipitation 0.00 in 0.09 in 1.97 in (1990)
Month to date precipitation 2.66 3.06  
Year to date precipitation 36.12 28.57  
Snow  
Snow 0.00 in 0.00 in 0.00 in (1894)
Month to date snowfall 0.0 0.0  
Since 1 June snowfall 0.0 0.0  
Since 1 July snowfall 0.0 0.0  
Snow Depth 0.00 in    
Sea Level Pressure  
Sea Level Pressure 29.95 in    
Wind  
Wind Speed 8 mph (NW)    
Max Wind Speed 20 mph    
Max Gust Speed 26 mph    
Visibility 10 miles    
Events      
T = Trace of Precipitation, MM = Missing Value Source: NWS Daily Summary

Daily Weather History Graph

Daily Weather History Graph

Search for Another Location

Airport or City:

Astronomy

Aug. 29, 2019 Rise Set
Actual Time 6:27 AM EDT 7:38 PM EDT
Civil Twilight 5:59 AM EDT 8:06 PM EDT
Nautical Twilight 5:26 AM EDT 8:39 PM EDT
Astronomical Twilight 4:51 AM EDT 9:14 PM EDT
Moon 5:10 AM EDT (8/29) 7:33 PM EDT (8/29)
Length of Visible Light 14h 06m
Length of Day
13h 11m
Waning Crescent, 1% of the Moon is Illuminated
Aug 29
Waning Crescent
Aug 30
New
Sep 5
First Quarter
Sep 14
Full
Sep 21
Last Quarter

Hourly Weather History & Observations

Time (EDT) Temp. Heat Index Dew Point Humidity Pressure Visibility Wind Dir Wind Speed Gust Speed Precip Events Conditions
12:51 AM 66.0 °F - 63.0 °F 90% 29.87 in 10.0 mi NW 6.9 mph - N/A   Clear
1:51 AM 66.0 °F - 63.0 °F 90% 29.87 in 10.0 mi NNW 5.8 mph - N/A   Clear
2:51 AM 64.9 °F - 63.0 °F 93% 29.88 in 10.0 mi NNW 4.6 mph - N/A   Clear
3:51 AM 64.0 °F - 63.0 °F 96% 29.89 in 10.0 mi NW 5.8 mph - N/A   Clear
4:51 AM 64.0 °F - 63.0 °F 96% 29.90 in 10.0 mi NW 5.8 mph - N/A   Clear
5:51 AM 64.9 °F - 64.0 °F 97% 29.91 in 10.0 mi NW 5.8 mph - N/A   Clear
6:51 AM 64.0 °F - 63.0 °F 96% 29.92 in 10.0 mi NW 5.8 mph - N/A   Clear
7:51 AM 69.1 °F - 63.0 °F 81% 29.93 in 10.0 mi NW 9.2 mph - N/A   Clear
8:51 AM 73.0 °F - 60.1 °F 64% 29.94 in 10.0 mi NNW 9.2 mph - N/A   Clear
9:51 AM 78.1 °F - 60.1 °F 54% 29.96 in 10.0 mi NW 11.5 mph 20.7 mph N/A   Clear
10:51 AM 79.0 °F - 59.0 °F 50% 29.98 in 10.0 mi NW 13.8 mph - N/A   Clear
11:51 AM 81.0 °F 81.0 °F 57.0 °F 44% 29.98 in 10.0 mi NNW 12.7 mph 20.7 mph N/A   Clear
12:51 PM 82.0 °F 82.0 °F 57.9 °F 44% 29.97 in 10.0 mi NW 13.8 mph 24.2 mph N/A   Clear
1:51 PM 82.9 °F 82.8 °F 59.0 °F 44% 29.96 in 10.0 mi Variable 6.9 mph 16.1 mph N/A   Clear
2:51 PM 82.9 °F 82.4 °F 57.0 °F 41% 29.95 in 10.0 mi NNW 17.3 mph 20.7 mph N/A   Clear
3:51 PM 82.9 °F 81.9 °F 54.0 °F 37% 29.94 in 10.0 mi WNW 18.4 mph 24.2 mph N/A   Clear
4:51 PM 82.0 °F 81.4 °F 55.0 °F 39% 29.95 in 10.0 mi NW 11.5 mph - N/A   Clear
5:51 PM 81.0 °F 80.5 °F 54.0 °F 39% 29.96 in 10.0 mi NW 12.7 mph - N/A   Clear
6:51 PM 79.0 °F - 53.1 °F 40% 29.97 in 10.0 mi WNW 11.5 mph - N/A   Clear
7:51 PM 73.9 °F - 54.0 °F 50% 29.99 in 10.0 mi WNW 6.9 mph - N/A   Clear
8:51 PM 73.0 °F - 55.0 °F 53% 30.01 in 10.0 mi Calm Calm - N/A   Clear
9:51 PM 68.0 °F - 57.0 °F 68% 30.02 in 10.0 mi Calm Calm - N/A   Clear
10:51 PM 68.0 °F - 57.9 °F 70% 30.03 in 10.0 mi Calm Calm - N/A   Clear
11:51 PM 64.0 °F - 57.9 °F 80% 30.03 in 10.0 mi NNW 3.5 mph - N/A   Clear